[[{"header":{"parameterUnit":"m.s-1","parameterCategory":2,"la1":30.2991,"la2":30.254,"lo1":-89.0895,"lo2":-89.0444,"dy":0.0017,"dx":0.0017,"nx":28,"ny":28,"refTime":"2025-03-10T09:00:00:Z","depth":"0","parameterNumber":2,"parameterNumberName":"U-component_of_CURRENTS"},"data":[0,0,0,0,0,0,0,0,0,0,0,0,0,0,0,0,0,0,0,0,0,0,0,0,0,0,0,0,0,0,0,0,0,0,0,0,0,0,0,0,0,0,0,0,0,0,0,0,0,0,0,0,0,0,0,0,0,0,0.2353,0.2354,0,0.2404,0.2405,0.2405,0.2406,0.2405,0.2405,0.2405,0.241,0.2411,0.2411,0,0,0,0,0,0,0,0,0,0,0,0,0,0.2269,0.227,0.2353,0.2354,0.2355,0.2404,0.2405,0.2405,0.2406,0.2405,0.2405,0.2405,0.241,0.2411,0.2411,0,0,0,0,0,0,0,0,0,0,0,0,0,0.2309,0.227,0.2353,0.2363,0.2365,0.2404,0.2405,0.2405,0.2406,0.2405,0.2405,0.2404,0.241,0.2411,0.2411,0.2428,0,0,0.2414,0.2414,0,0,0,0,0,0,0,0,0.2306,0.2311,0.2361,0.2363,0.2365,0.2401,0.2377,0.2412,0.2406,0.2388,0.2405,0.2404,0.2405,0.2406,0.2414,0.2428,0.2428,0.2414,0.2414,0.2415,0.2415,0,0,0,0,0,0,0,0.2304,0.2309,0.2371,0.2362,0.2364,0.237,0.2374,0.2384,0.2396,0.2389,0.239,0.24,0.2405,0.2413,0.2414,0.2429,0.2414,0.2414,0.2415,0.2415,0.2494,0.2495,0,0,0,0,0,0,0.2303,0.2307,0.2369,0.2373,0.2337,0.2372,0.2377,0.2387,0.2397,0.2399,0.2401,0.24,0.2412,0.2413,0.2414,0.2477,0.2415,0.2415,0.2416,0.2492,0.2494,0.2496,0,0,0,0,0,0,0.2301,0.2308,0.2367,0.2343,0.2351,0.2374,0.2386,0.2389,0.24,0.2407,0.2407,0.241,0.2412,0.2413,0.2437,0.2475,0.2416,0.2416,0.249,0.2493,0.2495,0.2574,0,0,0,0,0,0,0.2298,0.2307,0.2313,0.2343,0.2353,0.24,0.2387,0.239,0.2409,0.2408,0.2415,0.2414,0.2411,0.2436,0.2438,0.2475,0.2417,0.2488,0.2491,0.2494,0.257,0.2579,0.2587,0,0,0,0,0,0.2295,0.2308,0.2313,0.2321,0.236,0.2402,0.2407,0.2419,0.241,0.2424,0.2431,0.2414,0.2457,0.2438,0.244,0.2478,0.2487,0.249,0.2494,0.2566,0.2577,0.2587,0,0,0,0,0,0,0.2272,0.231,0.2316,0.2339,0.2372,0.2403,0.2418,0.2424,0.2441,0.2438,0.2434,0.2435,0.247,0.2462,0.2442,0.2509,0.247,0.2474,0.2524,0.2535,0.2543,0.2578,0.2418,0,0,0,0,0,0.2271,0.2291,0.233,0.2349,0.2367,0.2392,0.2409,0.2421,0.2441,0.2448,0.2454,0.2464,0.2487,0.25,0.2511,0.2548,0.257,0.2574,0.2583,0.259,0.262,0.2691,0.271,0.2508,0.2508,0.2508,0,0,0.2265,0.2291,0.23,0.2345,0.237,0.2412,0.24,0.2434,0.247,0.2446,0.2488,0.2492,0.2502,0.2547,0.2562,0.2545,0.2657,0.2595,0.2601,0.2628,0.2697,0.2717,0.2735,0.251,0.251,0.2509,0,0,0.2275,0.2291,0.2316,0.2351,0.2397,0.2423,0.2435,0.2473,0.2492,0.2531,0.253,0.2567,0.2581,0.2619,0.2634,0.27,0.2697,0.269,0.2771,0.2839,0.2857,0.2873,0.2918,0.2937,0.27,0.27,0.27,0,0.2267,0.231,0.233,0.2372,0.241,0.2431,0.248,0.2507,0.2548,0.2586,0.2551,0.263,0.2627,0.2721,0.2741,0.2725,0.2751,0.2728,0.2853,0.2869,0.2884,0.2927,0.2947,0.2704,0.2704,0.2703,0.2703,0,0.2306,0.2343,0.2364,0.2428,0.2469,0.2514,0.2564,0.2606,0.2622,0.2658,0.2737,0.2744,0.2802,0.2801,0.2789,0.2903,0.2881,0.2852,0.2829,0.291,0.2948,0.2969,0.271,0.2709,0.2708,0.2707,0,0,0.2286,0.2374,0.2383,0.2427,0.2507,0.2546,0.2624,0.2714,0.2773,0.2809,0.2898,0.2942,0.2955,0.2975,0.2973,0.3029,0.3141,0.299,0.2991,0.3041,0.3285,0.3268,0.3287,0.3132,0.3136,0.3139,0.3266,0,0.2317,0.2399,0.2442,0.2529,0.2583,0.2643,0.2714,0.2795,0.2851,0.2936,0.2988,0.305,0.3019,0.3044,0.3108,0.313,0.3199,0.3109,0.3195,0.3198,0.3178,0.3312,0.3324,0.3439,0.3285,0.3289,0.3291,0,0.235,0.2406,0.2488,0.2598,0.2627,0.2676,0.2809,0.2875,0.3005,0.3051,0.3149,0.3177,0.3289,0.3223,0.3357,0.3299,0.3316,0.3323,0.3327,0.3305,0.322,0.3335,0.3481,0.3489,0.3321,0.3319,0.3317,0,0.2338,0.2445,0.2511,0.2547,0.2665,0.2716,0.2783,0.2908,0.2989,0.3127,0.3197,0.3321,0.3377,0.3443,0.3467,0.3423,0.3589,0.3525,0.3535,0.3532,0.356,0.3553,0.3735,0.364,0.364,0.364,0.3639,0,0.2361,0.2416,0.2502,0.2537,0.2623,0.2707,0.2812,0.2898,0.3042,0.3138,0.3246,0.3343,0.3434,0.3528,0.3538,0.3617,0.3658,0.36,0.359,0.3584,0.3578,0.3595,0.354,0.3644,0.3643,0.3642,0.3641,0,0.2334,0.2394,0.2469,0.2578,0.2613,0.2667,0.2814,0.2885,0.3028,0.316,0.321,0.3397,0.3521,0.3603,0.3706,0.3705,0.3707,0.3773,0.3749,0.3736,0.3733,0.368,0.3626,0.3502,0.383,0.3831,0.3831,0,0.233,0.2361,0.2465,0.2493,0.2533,0.2628,0.2687,0.2852,0.2935,0.3175,0.3231,0.3422,0.3552,0.3737,0.3792,0.3875,0.374,0.3888,0.3815,0.3792,0.3727,0.3507,0.3387,0.3879,0.388,0.388,0.3881,0,0.2307,0.233,0.2377,0.2436,0.2487,0.2569,0.2667,0.2743,0.2926,0.3066,0.3245,0.3386,0.362,0.376,0.3886,0.3912,0.3774,0.3903,0.3916,0.3835,0.3575,0.343,0.3707,0.3888,0.3887,0.3887,0.3886,0.3886,0.2264,0.2278,0.232,0.2373,0.2425,0.2479,0.2522,0.2646,0.2788,0.2981,0.3158,0.3371,0.3706,0.3924,0.3904,0.399,0.3804,0.3968,0.3923,0.3713,0.3552,0.383,0.3964,0.3964,0.3963,0.3963,0.3963,0,0.2205,0.2222,0.2258,0.2307,0.2323,0.2389,0.2483,0.252,0.2633,0.2886,0.3063,0.3471,0.3733,0.3945,0.4186,0.4094,0.3836,0.4001,0.3757,0.3644,0.3994,0.3961,0.4058,0.4058,0.4058,0.4058,0.4058,0.4058,0.2171,0.2172,0.2195,0.2195,0.2222,0.2228,0.226,0.2335,0.2502,0.2771,0.3032,0.3268,0.3833,0.4315,0.4408,0.4255,0.3899,0.3759,0.3609,0.3984,0.3978,0.3972,0.3936,0.4026,0.4026,0.3183,0.3177,0.3173]},{"header":{"parameterUnit":"m.s-1","parameterCategory":2,"la1":30.2991,"la2":30.254,"lo1":-89.0895,"lo2":-89.0444,"dy":0.0017,"dx":0.0017,"nx":28,"ny":28,"refTime":"2025-03-10T09:00:00:Z","depth":"0","parameterNumber":3,"parameterNumberName":"V-component_of_CURRENTS"},"data":[0,0,0,0,0,0,0,0,0,0,0,0,0,0,0,0,0,0,0,0,0,0,0,0,0,0,0,0,0,0,0,0,0,0,0,0,0,0,0,0,0,0,0,0,0,0,0,0,0,0,0,0,0,0,0,0,0,0,-0.0203,-0.0204,0,-0.0272,-0.0273,-0.0273,-0.0322,-0.0323,-0.0323,-0.0323,-0.0409,-0.0411,-0.0413,0,0,0,0,0,0,0,0,0,0,0,0,0,-0.0152,-0.0153,-0.0203,-0.0204,-0.0205,-0.0272,-0.0273,-0.0274,-0.0322,-0.0323,-0.0323,-0.0324,-0.0408,-0.0411,-0.0413,0,0,0,0,0,0,0,0,0,0,0,0,0,-0.0193,-0.0153,-0.0203,-0.0237,-0.0241,-0.0272,-0.0273,-0.0274,-0.0322,-0.0323,-0.0323,-0.0324,-0.0408,-0.041,-0.0413,-0.0419,0,0,-0.0422,-0.0423,0,0,0,0,0,0,0,0,-0.019,-0.0195,-0.0231,-0.0235,-0.0239,-0.0289,-0.0286,-0.0323,-0.0322,-0.0291,-0.0323,-0.0324,-0.037,-0.0376,-0.0387,-0.0423,-0.0427,-0.0422,-0.0424,-0.0425,-0.0426,0,0,0,0,0,0,0,-0.0187,-0.0192,-0.023,-0.0232,-0.0237,-0.0262,-0.0268,-0.0294,-0.0327,-0.0294,-0.0298,-0.0305,-0.0372,-0.0384,-0.039,-0.0428,-0.0422,-0.0425,-0.0426,-0.0428,-0.0488,-0.0488,0,0,0,0,0,0,-0.0176,-0.0189,-0.0228,-0.0232,-0.0216,-0.0263,-0.0269,-0.0272,-0.0326,-0.0335,-0.0305,-0.0307,-0.0379,-0.0386,-0.0393,-0.0407,-0.0425,-0.0428,-0.0429,-0.0489,-0.0488,-0.0488,0,0,0,0,0,0,-0.0175,-0.0179,-0.0225,-0.0213,-0.0221,-0.0262,-0.0266,-0.0274,-0.0287,-0.0334,-0.0343,-0.031,-0.038,-0.0389,-0.0414,-0.0411,-0.0429,-0.0432,-0.0489,-0.0488,-0.0488,-0.0433,0,0,0,0,0,0,-0.0173,-0.0178,-0.0173,-0.0212,-0.0221,-0.0235,-0.0266,-0.0274,-0.029,-0.0294,-0.0341,-0.035,-0.0381,-0.0409,-0.0417,-0.0415,-0.0434,-0.0489,-0.0489,-0.0488,-0.0435,-0.0431,-0.0428,0,0,0,0,0,-0.0171,-0.0158,-0.0173,-0.0177,-0.0214,-0.0235,-0.0241,-0.0274,-0.029,-0.0289,-0.0324,-0.0349,-0.0414,-0.0411,-0.042,-0.0419,-0.0489,-0.0489,-0.0488,-0.0437,-0.0432,-0.0428,0,0,0,0,0,0,-0.0131,-0.0163,-0.018,-0.0177,-0.0202,-0.0243,-0.0243,-0.0268,-0.0295,-0.0298,-0.0346,-0.0357,-0.0378,-0.0405,-0.0401,-0.0437,-0.0456,-0.0457,-0.0414,-0.041,-0.0406,-0.0389,-0.0436,0,0,0,0,0,-0.012,-0.012,-0.0157,-0.0154,-0.0162,-0.0202,-0.0214,-0.0236,-0.0267,-0.028,-0.0314,-0.0351,-0.0384,-0.04,-0.043,-0.0447,-0.0476,-0.0453,-0.0449,-0.0446,-0.0438,-0.0491,-0.0492,-0.0488,-0.0488,-0.0488,0,0,-0.0105,-0.0121,-0.0123,-0.0146,-0.0167,-0.0168,-0.0211,-0.0221,-0.0226,-0.0284,-0.0296,-0.0337,-0.0385,-0.0406,-0.0418,-0.0428,-0.046,-0.0446,-0.0442,-0.0436,-0.0491,-0.0492,-0.0492,-0.0487,-0.0487,-0.0487,0,0,-0.0068,-0.0087,-0.0073,-0.0089,-0.0114,-0.0139,-0.0139,-0.0177,-0.0195,-0.0215,-0.0261,-0.0299,-0.0341,-0.038,-0.0405,-0.0398,-0.0438,-0.0407,-0.0376,-0.0428,-0.0428,-0.0429,-0.0453,-0.0457,-0.0406,-0.0406,-0.0406,0,-0.0047,-0.0035,-0.0072,-0.0062,-0.0066,-0.0121,-0.0104,-0.0132,-0.0174,-0.0186,-0.0208,-0.0284,-0.033,-0.0365,-0.0368,-0.039,-0.0416,-0.0387,-0.0422,-0.0424,-0.0426,-0.0451,-0.0456,-0.0403,-0.0404,-0.0404,-0.0404,0,-0.0002,0.0007,0.0016,0.001,-0.0,0.0005,-0.0036,-0.005,-0.0082,-0.0117,-0.0156,-0.0224,-0.0269,-0.0296,-0.0333,-0.0368,-0.0379,-0.041,-0.0431,-0.0423,-0.0449,-0.0455,-0.04,-0.0401,-0.0401,-0.0402,0,0,0.0042,0.0049,0.0051,0.0069,0.004,0.0042,0.0033,0.001,0.0014,-0.0052,-0.0057,-0.0143,-0.0188,-0.0219,-0.0277,-0.0331,-0.0374,-0.0372,-0.0376,-0.039,-0.0467,-0.047,-0.0477,-0.0413,-0.0414,-0.0415,-0.0474,0,0.009,0.0137,0.0118,0.0159,0.0181,0.0135,0.0138,0.0106,0.0069,0.0049,-0.0046,-0.0072,-0.0157,-0.0171,-0.0245,-0.0335,-0.0389,-0.0353,-0.0478,-0.0481,-0.0481,-0.0485,-0.0475,-0.0528,-0.048,-0.0482,-0.0482,0,0.014,0.0168,0.0221,0.0249,0.0255,0.0263,0.0264,0.0258,0.0201,0.0172,0.0106,0.0043,-0.0045,-0.0114,-0.0278,-0.0249,-0.0352,-0.0432,-0.0437,-0.0462,-0.0496,-0.0532,-0.0541,-0.0757,-0.0492,-0.0491,-0.049,0,0.0199,0.024,0.029,0.0297,0.0314,0.0326,0.0326,0.0293,0.0315,0.0249,0.0262,0.0131,0.0095,-0.0066,-0.0236,-0.0256,-0.0408,-0.0456,-0.0556,-0.0556,-0.0584,-0.0585,-0.0812,-0.0574,-0.0574,-0.0574,-0.0573,0,0.0259,0.03,0.0325,0.0352,0.0424,0.0396,0.0455,0.0431,0.0425,0.0463,0.0332,0.0345,0.0104,-0.0007,-0.0192,-0.038,-0.0378,-0.0545,-0.0577,-0.0562,-0.056,-0.0778,-0.0917,-0.0576,-0.0575,-0.0575,-0.0574,0,0.0317,0.0329,0.0396,0.0432,0.0456,0.0501,0.0562,0.0606,0.0575,0.0624,0.0617,0.0512,0.0362,0.013,-0.0114,-0.0293,-0.0625,-0.0558,-0.0509,-0.0534,-0.0832,-0.0967,-0.1245,-0.1361,-0.0678,-0.0679,-0.0679,0,0.035,0.0391,0.0468,0.0522,0.0542,0.0612,0.0673,0.0679,0.0739,0.0738,0.0782,0.0664,0.061,0.0257,-0.009,-0.0404,-0.0638,-0.0602,-0.0655,-0.0848,-0.1022,-0.1134,-0.122,-0.0666,-0.0666,-0.0666,-0.0666,0,0.0418,0.0441,0.0501,0.0619,0.0696,0.0798,0.0882,0.0964,0.0977,0.1029,0.1076,0.1038,0.0692,0.0396,-0.0046,-0.0299,-0.0782,-0.0616,-0.0846,-0.1057,-0.1166,-0.1289,-0.0611,-0.0668,-0.0668,-0.0668,-0.0668,-0.0668,0.0469,0.053,0.0614,0.0731,0.0831,0.097,0.1082,0.118,0.131,0.142,0.1338,0.136,0.0872,0.0276,-0.0121,-0.0788,-0.0817,-0.0968,-0.1119,-0.1215,-0.1334,-0.0642,-0.0718,-0.0718,-0.0718,-0.0718,-0.0719,0,0.0538,0.0613,0.0723,0.087,0.1005,0.104,0.1224,0.1356,0.1539,0.1654,0.1711,0.1536,0.0905,0.0255,-0.0647,-0.1155,-0.1395,-0.1454,-0.1631,-0.1697,-0.1099,-0.1104,-0.123,-0.123,-0.123,-0.123,-0.1229,-0.1229,0.0577,0.0699,0.0764,0.1,0.1111,0.1323,0.1446,0.1636,0.179,0.2002,0.2083,0.2084,0.1642,-0.0173,-0.136,-0.1659,-0.2054,-0.2155,-0.2345,-0.1951,-0.1917,-0.1885,-0.1923,-0.2218,-0.222,-0.287,-0.2877,-0.2882]}],[{"header":{"parameterUnit":"m.s-1","parameterCategory":2,"la1":30.2991,"la2":30.254,"lo1":-89.0895,"lo2":-89.0444,"dy":0.0017,"dx":0.0017,"nx":28,"ny":28,"refTime":"2025-03-10T09:00:00:Z","depth":"2","parameterNumber":2,"parameterNumberName":"U-component_of_CURRENTS"},"data":[0,0,0,0,0,0,0,0,0,0,0,0,0,0,0,0,0,0,0,0,0,0,0,0,0,0,0,0,0,0,0,0,0,0,0,0,0,0,0,0,0,0,0,0,0,0,0,0,0,0,0,0,0,0,0,0,0,0,0.2241,0.2242,0,0.229,0.229,0.229,0.2294,0.2293,0.2293,0.2293,0.2299,0.2299,0.23,0,0,0,0,0,0,0,0,0,0,0,0,0,0.2157,0.2159,0.2241,0.2242,0.2243,0.229,0.229,0.2291,0.2294,0.2293,0.2293,0.2293,0.2299,0.2299,0.23,0,0,0,0,0,0,0,0,0,0,0,0,0,0.2196,0.2159,0.2241,0.2252,0.2254,0.229,0.229,0.2291,0.2294,0.2293,0.2293,0.2293,0.2299,0.2299,0.23,0.2313,0,0,0.2302,0.2302,0,0,0,0,0,0,0,0,0.2194,0.2199,0.2249,0.2251,0.2253,0.2288,0.2263,0.2297,0.2294,0.2276,0.2293,0.2292,0.2293,0.2294,0.2301,0.2313,0.2313,0.2302,0.2302,0.2303,0.2303,0,0,0,0,0,0,0,0.2191,0.2197,0.2257,0.225,0.2253,0.2257,0.2262,0.227,0.2283,0.2277,0.2278,0.2288,0.2294,0.2301,0.2301,0.2313,0.2302,0.2302,0.2303,0.2303,0.2377,0.2378,0,0,0,0,0,0,0.2191,0.2194,0.2256,0.2259,0.2225,0.2259,0.2264,0.2275,0.2284,0.2286,0.2289,0.2288,0.23,0.23,0.2301,0.2364,0.2303,0.2303,0.2304,0.2375,0.2377,0.2379,0,0,0,0,0,0,0.2189,0.2196,0.2254,0.223,0.2238,0.2261,0.2273,0.2276,0.2289,0.2294,0.2295,0.23,0.2299,0.23,0.2324,0.2362,0.2303,0.2304,0.2373,0.2376,0.2378,0.2459,0,0,0,0,0,0,0.2187,0.2195,0.2202,0.223,0.2239,0.2286,0.2274,0.2277,0.2297,0.2297,0.2304,0.2303,0.2299,0.2324,0.2325,0.2362,0.2305,0.2371,0.2374,0.2377,0.2454,0.2463,0.2472,0,0,0,0,0,0.2183,0.2196,0.2202,0.221,0.2249,0.2288,0.2293,0.2306,0.2298,0.2313,0.2319,0.2303,0.2343,0.2326,0.2327,0.2365,0.237,0.2373,0.2377,0.245,0.2462,0.2471,0,0,0,0,0,0,0.2162,0.2199,0.2206,0.2229,0.2261,0.2289,0.2305,0.2311,0.2328,0.2327,0.2322,0.2323,0.2358,0.2349,0.233,0.2394,0.2355,0.2359,0.241,0.2421,0.2429,0.2464,0.2305,0,0,0,0,0,0.2163,0.2183,0.222,0.2239,0.2257,0.2281,0.2298,0.231,0.233,0.2337,0.2343,0.2353,0.2374,0.2386,0.2396,0.2431,0.2452,0.2457,0.2465,0.2473,0.2502,0.2571,0.2589,0.239,0.239,0.239,0,0,0.2158,0.2183,0.2193,0.2237,0.226,0.23,0.229,0.2323,0.2358,0.2335,0.2377,0.238,0.2388,0.2431,0.2446,0.2429,0.2538,0.2477,0.2484,0.251,0.2577,0.2596,0.2614,0.2393,0.2392,0.2392,0,0,0.2169,0.2186,0.2211,0.2244,0.2289,0.2313,0.2325,0.2362,0.2381,0.2419,0.2419,0.2456,0.2467,0.2504,0.2517,0.2582,0.2578,0.2572,0.2652,0.2718,0.2736,0.2751,0.2794,0.2812,0.2581,0.2582,0.2582,0,0.2163,0.2204,0.2225,0.2264,0.2301,0.2322,0.2369,0.2395,0.2434,0.2473,0.244,0.2516,0.2513,0.2602,0.2623,0.2607,0.2631,0.261,0.2732,0.2748,0.2763,0.2802,0.2822,0.2586,0.2585,0.2585,0.2585,0,0.22,0.2236,0.2257,0.2318,0.2358,0.2401,0.2449,0.2491,0.2508,0.2543,0.2621,0.2628,0.2685,0.2683,0.2671,0.2783,0.2761,0.2731,0.2709,0.2788,0.2824,0.2843,0.2592,0.2591,0.2589,0.2588,0,0,0.2184,0.2267,0.2276,0.2319,0.2394,0.2433,0.2508,0.2596,0.2655,0.269,0.2779,0.2821,0.2837,0.2855,0.2853,0.2906,0.3017,0.2869,0.287,0.2917,0.3155,0.3133,0.3151,0.3008,0.3012,0.3015,0.3135,0,0.2214,0.2291,0.2332,0.2417,0.2468,0.2527,0.2595,0.2675,0.273,0.2816,0.2866,0.2929,0.2898,0.2925,0.2987,0.3007,0.3073,0.2987,0.3066,0.3069,0.3046,0.3175,0.2935,0.3022,0.3153,0.3157,0.3159,0,0.2245,0.2298,0.2378,0.2484,0.2512,0.2559,0.2692,0.2756,0.2884,0.293,0.3028,0.3056,0.3167,0.3102,0.323,0.3175,0.319,0.3193,0.3197,0.317,0.3085,0.2965,0.3052,0.3191,0.3188,0.3186,0.3184,0,0.2235,0.2337,0.2402,0.2436,0.2549,0.2602,0.2667,0.2791,0.2869,0.3008,0.3076,0.32,0.3254,0.3318,0.3339,0.3297,0.3452,0.3391,0.3393,0.3389,0.32,0.3174,0.35,0.35,0.35,0.3499,0.3499,0,0.2257,0.231,0.2395,0.2428,0.2514,0.2595,0.2699,0.2785,0.2925,0.3019,0.3129,0.322,0.331,0.3399,0.3408,0.3477,0.3521,0.3455,0.3445,0.3219,0.3195,0.3344,0.3324,0.3504,0.3503,0.3502,0.3501,0,0.2232,0.2289,0.2362,0.2469,0.2504,0.2559,0.2701,0.2772,0.2911,0.3041,0.3091,0.3271,0.339,0.3468,0.3565,0.3561,0.3617,0.3618,0.3343,0.3301,0.349,0.3473,0.3666,0.3666,0.3667,0.3668,0.3668,0,0.2228,0.2258,0.236,0.2388,0.2429,0.2523,0.258,0.274,0.282,0.3053,0.3106,0.3291,0.3411,0.3582,0.3596,0.3663,0.3662,0.3458,0.3355,0.3551,0.352,0.3502,0.3484,0.312,0.3116,0.3112,0.311,0,0.2206,0.223,0.2276,0.2334,0.2384,0.2463,0.256,0.2632,0.281,0.2942,0.3112,0.3243,0.3429,0.3426,0.3524,0.3504,0.3436,0.3397,0.3697,0.3123,0.3049,0.3014,0.3012,0.308,0.3083,0.3085,0.3087,0.3088,0.2165,0.2179,0.2221,0.2274,0.2325,0.2376,0.2417,0.2524,0.2655,0.2801,0.2984,0.309,0.3203,0.3259,0.3201,0.3149,0.3371,0.322,0.3225,0.3234,0.3158,0.309,0.3114,0.3117,0.3119,0.3122,0.3124,0,0.2101,0.2126,0.2162,0.2209,0.2215,0.2291,0.2379,0.2381,0.2469,0.2632,0.2763,0.2654,0.274,0.2822,0.2742,0.2797,0.2696,0.2662,0.2506,0.2542,0.2573,0.2454,0.2228,0.2224,0.222,0.2217,0,0,0.2067,0.2063,0.2085,0.208,0.2116,0.2101,0.2131,0.2146,0.2229,0.2266,0.2326,0.2576,0.277,0.2439,0.2448,0.2325,0.2382,0.2229,0.2967,0.282,0.2844,0.2941,0.2809,0,0,0,0,0]},{"header":{"parameterUnit":"m.s-1","parameterCategory":2,"la1":30.2991,"la2":30.254,"lo1":-89.0895,"lo2":-89.0444,"dy":0.0017,"dx":0.0017,"nx":28,"ny":28,"refTime":"2025-03-10T09:00:00:Z","depth":"2","parameterNumber":3,"parameterNumberName":"V-component_of_CURRENTS"},"data":[0,0,0,0,0,0,0,0,0,0,0,0,0,0,0,0,0,0,0,0,0,0,0,0,0,0,0,0,0,0,0,0,0,0,0,0,0,0,0,0,0,0,0,0,0,0,0,0,0,0,0,0,0,0,0,0,0,0,-0.0147,-0.0148,0,-0.0215,-0.0215,-0.0216,-0.0265,-0.0266,-0.0266,-0.0267,-0.0351,-0.0352,-0.0354,0,0,0,0,0,0,0,0,0,0,0,0,0,-0.0095,-0.0095,-0.0147,-0.0148,-0.0149,-0.0214,-0.0215,-0.0216,-0.0265,-0.0266,-0.0266,-0.0267,-0.035,-0.0352,-0.0354,0,0,0,0,0,0,0,0,0,0,0,0,0,-0.0135,-0.0095,-0.0147,-0.0181,-0.0185,-0.0214,-0.0215,-0.0217,-0.0265,-0.0266,-0.0266,-0.0267,-0.0349,-0.0352,-0.0355,-0.0359,0,0,-0.0363,-0.0364,0,0,0,0,0,0,0,0,-0.0133,-0.0137,-0.0175,-0.0179,-0.0183,-0.0232,-0.0228,-0.0265,-0.0265,-0.0234,-0.0267,-0.0267,-0.0312,-0.0318,-0.0329,-0.0363,-0.0366,-0.0363,-0.0365,-0.0366,-0.0367,0,0,0,0,0,0,0,-0.013,-0.0135,-0.0174,-0.0176,-0.0181,-0.0205,-0.0211,-0.0235,-0.0269,-0.0237,-0.0241,-0.0248,-0.0315,-0.0326,-0.0331,-0.0368,-0.0363,-0.0366,-0.0367,-0.0369,-0.0426,-0.0426,0,0,0,0,0,0,-0.0119,-0.0132,-0.0172,-0.0176,-0.0159,-0.0205,-0.0212,-0.0216,-0.0269,-0.0277,-0.0248,-0.0251,-0.0321,-0.0328,-0.0334,-0.0347,-0.0366,-0.0369,-0.037,-0.0426,-0.0426,-0.0426,0,0,0,0,0,0,-0.0118,-0.0122,-0.0169,-0.0156,-0.0163,-0.0205,-0.0209,-0.0217,-0.023,-0.0277,-0.0286,-0.0254,-0.0322,-0.0331,-0.0355,-0.0351,-0.037,-0.0373,-0.0426,-0.0426,-0.0426,-0.037,0,0,0,0,0,0,-0.0116,-0.0121,-0.0117,-0.0155,-0.0164,-0.0178,-0.0209,-0.0218,-0.0234,-0.0238,-0.0285,-0.0293,-0.0323,-0.035,-0.0357,-0.0355,-0.0375,-0.0426,-0.0426,-0.0426,-0.0372,-0.0368,-0.0365,0,0,0,0,0,-0.0114,-0.0101,-0.0117,-0.0121,-0.0158,-0.0178,-0.0184,-0.0217,-0.0233,-0.0233,-0.0267,-0.0292,-0.0354,-0.0352,-0.0361,-0.0359,-0.0426,-0.0426,-0.0426,-0.0374,-0.0369,-0.0365,0,0,0,0,0,0,-0.0075,-0.0107,-0.0124,-0.0122,-0.0146,-0.0186,-0.0187,-0.0212,-0.0238,-0.0242,-0.0289,-0.0299,-0.032,-0.0346,-0.0343,-0.0375,-0.0395,-0.0396,-0.0352,-0.0348,-0.0344,-0.0327,-0.0377,0,0,0,0,0,-0.0064,-0.0065,-0.0101,-0.0099,-0.0108,-0.0147,-0.0159,-0.0181,-0.0211,-0.0224,-0.0258,-0.0293,-0.0324,-0.034,-0.0369,-0.0384,-0.0414,-0.0389,-0.0385,-0.0382,-0.0374,-0.0426,-0.0426,-0.0425,-0.0425,-0.0425,0,0,-0.005,-0.0067,-0.0068,-0.0091,-0.0112,-0.0113,-0.0155,-0.0166,-0.017,-0.0228,-0.0239,-0.028,-0.0325,-0.0344,-0.0356,-0.0366,-0.0396,-0.0382,-0.0378,-0.0372,-0.0426,-0.0426,-0.0426,-0.0424,-0.0425,-0.0425,0,0,-0.0014,-0.0034,-0.002,-0.0035,-0.006,-0.0084,-0.0085,-0.0122,-0.014,-0.0158,-0.0203,-0.0242,-0.0281,-0.0318,-0.0341,-0.0333,-0.0374,-0.0342,-0.031,-0.036,-0.0361,-0.0362,-0.0387,-0.0391,-0.0341,-0.0341,-0.0341,0,0.0005,0.0017,-0.0019,-0.0008,-0.0012,-0.0066,-0.0049,-0.0076,-0.0117,-0.0128,-0.0152,-0.0225,-0.0269,-0.03,-0.0303,-0.0325,-0.0351,-0.0322,-0.0355,-0.0357,-0.0358,-0.0385,-0.039,-0.0338,-0.0338,-0.0339,-0.0339,0,0.0051,0.006,0.0069,0.0064,0.0055,0.006,0.0021,0.0008,-0.0025,-0.0059,-0.0096,-0.0163,-0.0206,-0.0232,-0.0268,-0.0301,-0.0314,-0.0344,-0.0364,-0.0355,-0.0384,-0.0389,-0.0334,-0.0335,-0.0336,-0.0337,0,0,0.0092,0.0101,0.0103,0.0123,0.0095,0.0098,0.0091,0.007,0.0075,0.001,0.0005,-0.0077,-0.0123,-0.0153,-0.021,-0.0261,-0.0304,-0.0303,-0.0307,-0.0323,-0.0398,-0.0403,-0.041,-0.0342,-0.0343,-0.0344,-0.0408,0,0.014,0.0189,0.0171,0.0213,0.0237,0.0193,0.0198,0.0168,0.0131,0.0112,0.0019,-0.0007,-0.009,-0.0106,-0.0176,-0.0266,-0.0319,-0.0282,-0.0409,-0.0412,-0.0414,-0.0418,-0.0394,-0.0449,-0.0414,-0.0415,-0.0415,0,0.019,0.0219,0.0274,0.0305,0.0311,0.0319,0.0322,0.0318,0.0263,0.0234,0.0169,0.0106,0.0021,-0.0048,-0.0209,-0.0181,-0.0283,-0.0362,-0.0367,-0.0395,-0.0429,-0.0456,-0.0462,-0.0426,-0.0425,-0.0424,-0.0424,0,0.0248,0.0291,0.0343,0.035,0.037,0.0383,0.0383,0.0352,0.0375,0.031,0.0321,0.0194,0.0155,-0.0002,-0.0172,-0.019,-0.0342,-0.0387,-0.0488,-0.0489,-0.0505,-0.0505,-0.0503,-0.0503,-0.0502,-0.0502,-0.0502,0,0.0308,0.0349,0.0376,0.0403,0.0476,0.0451,0.0509,0.0487,0.048,0.0518,0.0389,0.0399,0.0164,0.0052,-0.013,-0.0317,-0.0314,-0.0478,-0.051,-0.0483,-0.0481,-0.0492,-0.049,-0.0505,-0.0504,-0.0504,-0.0503,0,0.0364,0.0378,0.0445,0.0483,0.0507,0.0551,0.0612,0.0656,0.0626,0.0672,0.0665,0.0559,0.0407,0.018,-0.0062,-0.0235,-0.0428,-0.0497,-0.0435,-0.046,-0.0551,-0.0546,-0.0616,-0.0617,-0.0618,-0.0618,-0.0619,0,0.0397,0.0438,0.0515,0.0568,0.0589,0.0658,0.0718,0.0725,0.0784,0.078,0.0822,0.0701,0.064,0.029,-0.0046,-0.0353,-0.0406,-0.0532,-0.0577,-0.0541,-0.0565,-0.0559,-0.0552,-0.0573,-0.0573,-0.0573,-0.0573,0,0.0463,0.0485,0.0545,0.0662,0.0738,0.0839,0.092,0.1,0.1013,0.106,0.1098,0.1053,0.0712,0.0407,-0.0025,-0.0249,-0.0487,-0.0543,-0.053,-0.0542,-0.0505,-0.0526,-0.0521,-0.0573,-0.0573,-0.0573,-0.0573,-0.0573,0.0511,0.0572,0.0654,0.077,0.0869,0.1004,0.1113,0.1199,0.132,0.1396,0.1322,0.1265,0.0881,0.0352,-0.0047,-0.0474,-0.0466,-0.0615,-0.0614,-0.0612,-0.0591,-0.0556,-0.0629,-0.0629,-0.0629,-0.063,-0.063,0,0.0579,0.0652,0.0759,0.0903,0.1034,0.1071,0.1249,0.1356,0.1516,0.1559,0.1585,0.1255,0.0882,0.0443,-0.0179,-0.0551,-0.0598,-0.0674,-0.0647,-0.0643,-0.0641,-0.0621,-0.0668,-0.0669,-0.067,-0.0671,0,0,0.0617,0.0736,0.08,0.1026,0.1134,0.1332,0.1451,0.1591,0.1676,0.1748,0.1716,0.159,0.1046,0.0601,0.007,-0.0289,-0.0379,-0.037,-0.0302,-0.0206,-0.0198,-0.0576,-0.0536,0,0,0,0,0]}],[{"header":{"parameterUnit":"m.s-1","parameterCategory":2,"la1":30.2991,"la2":30.254,"lo1":-89.0895,"lo2":-89.0444,"dy":0.0017,"dx":0.0017,"nx":28,"ny":28,"refTime":"2025-03-10T09:00:00:Z","depth":"4","parameterNumber":2,"parameterNumberName":"U-component_of_CURRENTS"},"data":[0,0,0,0,0,0,0,0,0,0,0,0,0,0,0,0,0,0,0,0,0,0,0,0,0,0,0,0,0,0,0,0,0,0,0,0,0,0,0,0,0,0,0,0,0,0,0,0,0,0,0,0,0,0,0,0,0,0,0.1405,0.1406,0,0.1493,0.1494,0.1495,0.1554,0.1554,0.1555,0.1555,0.1637,0.1638,0.164,0,0,0,0,0,0,0,0,0,0,0,0,0,0.1263,0.1265,0.1404,0.1406,0.1407,0.1493,0.1494,0.1495,0.1554,0.1554,0.1555,0.1556,0.1636,0.1638,0.164,0,0,0,0,0,0,0,0,0,0,0,0,0,0.1333,0.1266,0.1404,0.1448,0.1453,0.1493,0.1494,0.1495,0.1553,0.1554,0.1555,0.1556,0.1636,0.1638,0.164,0.1638,0,0,0.1648,0.1649,0,0,0,0,0,0,0,0,0.1329,0.1338,0.144,0.1445,0.1451,0.1515,0.1474,0.1543,0.1553,0.1513,0.1555,0.1556,0.1596,0.1602,0.1614,0.1642,0.1645,0.1648,0.165,0.1651,0.1651,0,0,0,0,0,0,0,0.1324,0.1335,0.1438,0.1442,0.1448,0.1455,0.1466,0.1487,0.1547,0.1517,0.1522,0.1534,0.1599,0.1611,0.1616,0.1647,0.1648,0.165,0.1652,0.1653,0.1779,0.1781,0,0,0,0,0,0,0.1318,0.133,0.1435,0.144,0.1393,0.1457,0.147,0.1492,0.1547,0.1557,0.1534,0.1537,0.1607,0.1613,0.1619,0.1713,0.1651,0.1653,0.1654,0.1777,0.178,0.1782,0,0,0,0,0,0,0.1315,0.1327,0.1431,0.1388,0.1402,0.1459,0.1484,0.1493,0.1538,0.156,0.157,0.1573,0.1608,0.1616,0.1673,0.1713,0.1654,0.1656,0.1775,0.1778,0.1781,0.1842,0,0,0,0,0,0,0.131,0.1325,0.1352,0.1388,0.1404,0.1478,0.1483,0.1494,0.1544,0.155,0.1596,0.1603,0.1609,0.167,0.1676,0.1716,0.1658,0.1773,0.1776,0.178,0.1837,0.1846,0.1854,0,0,0,0,0,0.1305,0.1334,0.1353,0.1366,0.1436,0.148,0.1489,0.153,0.1545,0.1572,0.1608,0.1603,0.1696,0.1673,0.168,0.1721,0.1771,0.1775,0.1779,0.1833,0.1844,0.1854,0,0,0,0,0,0,0.1293,0.1344,0.1365,0.1412,0.1454,0.1491,0.1525,0.1547,0.1596,0.1612,0.1626,0.1636,0.1699,0.1703,0.1677,0.1769,0.1733,0.1739,0.1772,0.1782,0.1791,0.1777,0.166,0,0,0,0,0,0.13,0.1337,0.1383,0.1425,0.1448,0.1491,0.1519,0.1549,0.1589,0.1614,0.1647,0.1684,0.1715,0.1745,0.1769,0.1822,0.1829,0.1854,0.1862,0.1869,0.1864,0.1915,0.1928,0.1796,0.1796,0.1795,0,0,0.1306,0.1341,0.1363,0.1425,0.1462,0.1502,0.1512,0.1567,0.1607,0.1613,0.1689,0.1713,0.1734,0.1793,0.1822,0.1808,0.1915,0.1874,0.188,0.1871,0.1921,0.1934,0.1945,0.1798,0.1798,0.1798,0,0,0.1325,0.137,0.1404,0.1443,0.1507,0.1532,0.1554,0.1612,0.1651,0.1717,0.1731,0.1777,0.1838,0.1858,0.1873,0.1941,0.1952,0.1965,0.2005,0.2057,0.2068,0.2077,0.2119,0.2131,0.1976,0.1976,0.1977,0,0.133,0.1381,0.1421,0.1464,0.1499,0.1547,0.1588,0.1633,0.1706,0.1737,0.1752,0.1848,0.1861,0.1924,0.1949,0.1958,0.1994,0.1964,0.2067,0.2076,0.2085,0.2125,0.2139,0.198,0.1979,0.1979,0.1979,0,0.1366,0.1418,0.1443,0.1511,0.1552,0.1599,0.1657,0.1715,0.1764,0.18,0.1887,0.1921,0.198,0.1994,0.1992,0.2069,0.2078,0.2066,0.2038,0.2102,0.214,0.2153,0.1985,0.1984,0.1983,0.1982,0,0,0.1347,0.1446,0.1459,0.1496,0.1581,0.1614,0.1692,0.176,0.1816,0.1893,0.1968,0.2019,0.2053,0.2072,0.2094,0.213,0.2219,0.2136,0.2137,0.217,0.2349,0.2237,0.2239,0.2243,0.2246,0.2248,0.2356,0,0.1364,0.1437,0.1487,0.156,0.1598,0.1668,0.1732,0.1804,0.1873,0.1962,0.2014,0.2092,0.2083,0.2133,0.2174,0.2208,0.2254,0.219,0.2286,0.2288,0.2175,0.225,0.2255,0.2365,0.2368,0.237,0.2372,0,0.1378,0.1425,0.1494,0.1584,0.1609,0.1666,0.1771,0.1838,0.1956,0.2019,0.2111,0.2164,0.2249,0.2231,0.2335,0.2309,0.2337,0.235,0.2355,0.223,0.2198,0.2285,0.2395,0.2393,0.2391,0.239,0.2388,0,0.1326,0.1427,0.1478,0.1512,0.1622,0.1677,0.1745,0.1857,0.194,0.2072,0.2161,0.225,0.2348,0.2385,0.2443,0.2405,0.2552,0.2497,0.2421,0.2414,0.2453,0.2442,0.2565,0.2565,0.2565,0.2565,0.2564,0,0.1308,0.1354,0.1467,0.1496,0.1577,0.166,0.1768,0.1849,0.1998,0.2092,0.2204,0.2305,0.2399,0.25,0.2497,0.2518,0.261,0.2435,0.2436,0.2479,0.2469,0.2463,0.245,0.2569,0.2568,0.2567,0.2566,0,0.1248,0.1321,0.1386,0.1507,0.1559,0.1618,0.1799,0.1867,0.2023,0.2164,0.2222,0.24,0.2506,0.2592,0.2669,0.26,0.2607,0.2595,0.2667,0.2669,0.2412,0.2401,0.2479,0.2476,0.2473,0.2471,0.2469,0,0.1221,0.125,0.1385,0.1433,0.15,0.1617,0.1697,0.1865,0.1946,0.2193,0.2247,0.2439,0.2528,0.2568,0.264,0.2654,0.2621,0.2611,0.2457,0.2411,0.2405,0.2398,0.239,0.2465,0.2464,0.2464,0.2463,0,0.1162,0.1222,0.1276,0.1381,0.147,0.1567,0.1696,0.1761,0.1944,0.2113,0.2222,0.2294,0.2433,0.2479,0.2554,0.254,0.2592,0.2582,0.2585,0.244,0.2395,0.239,0.2386,0.2454,0.2455,0.2456,0.2457,0,0.112,0.1144,0.1225,0.131,0.1411,0.1477,0.1567,0.1671,0.1784,0.2037,0.2065,0.2253,0.2406,0.2427,0.2474,0.2481,0.2404,0.2289,0.2305,0.2316,0.2211,0.2128,0.2116,0,0,0,0,0,0.1066,0.1086,0.1151,0.123,0.1323,0.139,0.1542,0.1632,0.1819,0.1841,0.1951,0.2052,0.2145,0.2244,0.2213,0.2391,0.2413,0.2344,0.2287,0.2405,0.2415,0.2307,0,0,0,0,0,0,0.1028,0.108,0.1112,0.1144,0.1184,0.128,0.1371,0.1499,0.1526,0.1717,0.178,0.192,0.2042,0.2137,0.2169,0.2198,0.2118,0.2458,0.2453,0.2399,0.2408,0.2417,0.2309,0,0,0,0,0]},{"header":{"parameterUnit":"m.s-1","parameterCategory":2,"la1":30.2991,"la2":30.254,"lo1":-89.0895,"lo2":-89.0444,"dy":0.0017,"dx":0.0017,"nx":28,"ny":28,"refTime":"2025-03-10T09:00:00:Z","depth":"4","parameterNumber":3,"parameterNumberName":"V-component_of_CURRENTS"},"data":[0,0,0,0,0,0,0,0,0,0,0,0,0,0,0,0,0,0,0,0,0,0,0,0,0,0,0,0,0,0,0,0,0,0,0,0,0,0,0,0,0,0,0,0,0,0,0,0,0,0,0,0,0,0,0,0,0,0,0.0033,0.0032,0,-0.0026,-0.0027,-0.0028,-0.0072,-0.0073,-0.0073,-0.0074,-0.0153,-0.0155,-0.0156,0,0,0,0,0,0,0,0,0,0,0,0,0,0.0098,0.0097,0.0033,0.0032,0.0031,-0.0026,-0.0027,-0.0028,-0.0072,-0.0073,-0.0073,-0.0074,-0.0152,-0.0155,-0.0157,0,0,0,0,0,0,0,0,0,0,0,0,0,0.0057,0.0096,0.0033,0.0002,-0.0001,-0.0026,-0.0027,-0.0028,-0.0072,-0.0073,-0.0073,-0.0074,-0.0152,-0.0154,-0.0157,-0.0161,0,0,-0.0165,-0.0166,0,0,0,0,0,0,0,0,0.006,0.0055,0.0008,0.0004,0.0001,-0.0043,-0.0033,-0.0073,-0.0072,-0.0045,-0.0074,-0.0074,-0.0118,-0.0123,-0.0132,-0.0164,-0.0168,-0.0165,-0.0167,-0.0168,-0.0168,0,0,0,0,0,0,0,0.0062,0.0057,0.001,0.0007,0.0003,-0.0012,-0.0018,-0.0041,-0.0077,-0.0048,-0.0051,-0.0057,-0.012,-0.013,-0.0135,-0.0169,-0.0165,-0.0167,-0.0169,-0.017,-0.0227,-0.0227,0,0,0,0,0,0,0.0071,0.006,0.0011,0.0008,0.0029,-0.0013,-0.002,-0.0028,-0.0077,-0.0085,-0.0057,-0.0059,-0.0125,-0.0132,-0.0138,-0.0145,-0.0168,-0.017,-0.0172,-0.0227,-0.0227,-0.0227,0,0,0,0,0,0,0.0072,0.0067,0.0014,0.0033,0.0025,-0.0013,-0.0022,-0.0029,-0.0044,-0.0084,-0.0092,-0.0065,-0.0126,-0.0134,-0.0158,-0.0148,-0.0171,-0.0174,-0.0227,-0.0227,-0.0227,-0.0159,0,0,0,0,0,0,0.0074,0.0068,0.0066,0.0033,0.0024,0.0003,-0.0022,-0.003,-0.0046,-0.005,-0.0093,-0.0101,-0.0127,-0.0154,-0.0161,-0.0152,-0.0176,-0.0227,-0.0227,-0.0227,-0.0161,-0.0156,-0.0152,0,0,0,0,0,0.0077,0.008,0.0067,0.0061,0.0022,0.0004,-0.0002,-0.0031,-0.0046,-0.0047,-0.0078,-0.01,-0.0159,-0.0156,-0.0164,-0.0156,-0.0227,-0.0227,-0.0227,-0.0163,-0.0157,-0.0152,0,0,0,0,0,0,0.0107,0.0075,0.0059,0.0052,0.0031,-0.0004,-0.0006,-0.0028,-0.0054,-0.0058,-0.0098,-0.0108,-0.0127,-0.0152,-0.0149,-0.0174,-0.0197,-0.0198,-0.0146,-0.0141,-0.0136,-0.0109,-0.0178,0,0,0,0,0,0.0113,0.0108,0.0075,0.007,0.0061,0.0027,0.0016,-0.0004,-0.0031,-0.0043,-0.0074,-0.0107,-0.0132,-0.0145,-0.0173,-0.0183,-0.0215,-0.0184,-0.018,-0.0176,-0.016,-0.0204,-0.0202,-0.0226,-0.0226,-0.0226,0,0,0.0123,0.0106,0.0102,0.0076,0.0058,0.0057,0.0019,0.0007,0.0009,-0.0047,-0.0055,-0.0094,-0.0133,-0.0146,-0.0156,-0.0165,-0.0188,-0.0176,-0.0172,-0.0158,-0.0204,-0.0202,-0.0199,-0.0226,-0.0226,-0.0226,0,0,0.0151,0.0127,0.0135,0.0122,0.0098,0.0079,0.0077,0.0043,0.003,0.0013,-0.0024,-0.0052,-0.0095,-0.0113,-0.013,-0.0118,-0.0167,-0.0136,-0.0086,-0.0129,-0.0127,-0.0126,-0.0169,-0.0173,-0.013,-0.013,-0.0129,0,0.0165,0.017,0.0135,0.0142,0.0143,0.0093,0.011,0.009,0.0052,0.005,0.0019,-0.0039,-0.0074,-0.0081,-0.0079,-0.0105,-0.0143,-0.01,-0.0122,-0.0121,-0.0121,-0.0166,-0.017,-0.0126,-0.0127,-0.0127,-0.0127,0,0.0198,0.0205,0.021,0.0205,0.02,0.0204,0.0176,0.0167,0.0139,0.0115,0.0091,0.0037,0.0005,-0.0015,-0.0043,-0.0054,-0.0087,-0.0114,-0.013,-0.0114,-0.0163,-0.0169,-0.0122,-0.0123,-0.0124,-0.0125,0,0,0.0226,0.0235,0.0236,0.0256,0.0237,0.0239,0.0245,0.024,0.0247,0.0195,0.0198,0.0147,0.0106,0.0085,0.0039,0.0005,-0.0032,-0.0048,-0.0052,-0.0081,-0.0135,-0.0142,-0.0149,-0.007,-0.007,-0.0071,-0.0172,0,0.0266,0.0306,0.0296,0.0337,0.0359,0.033,0.0344,0.033,0.0301,0.0286,0.0226,0.0203,0.0148,0.0128,0.0085,-0.0004,-0.0043,-0.0002,-0.0154,-0.0158,-0.0158,-0.0154,-0.0072,-0.0177,-0.0178,-0.0179,-0.018,0,0.0302,0.0328,0.0381,0.0418,0.0424,0.0438,0.0455,0.0459,0.0425,0.0399,0.0358,0.03,0.0248,0.019,0.0059,0.0082,-0.0013,-0.0087,-0.0094,-0.0123,-0.0174,-0.0197,-0.019,-0.0189,-0.0189,-0.0188,-0.0187,0,0.0346,0.0389,0.044,0.0449,0.0476,0.0498,0.0507,0.0493,0.0511,0.0466,0.046,0.0377,0.0333,0.0211,0.0058,0.0052,-0.0101,-0.013,-0.0224,-0.0227,-0.022,-0.0221,-0.022,-0.022,-0.022,-0.022,-0.0219,0,0.0391,0.0431,0.0465,0.0491,0.0558,0.0551,0.0604,0.0595,0.0589,0.061,0.0521,0.0507,0.0333,0.0224,0.0079,-0.0088,-0.0089,-0.0208,-0.0249,-0.0192,-0.0188,-0.0225,-0.0224,-0.0224,-0.0223,-0.0222,-0.0221,0,0.0427,0.0448,0.051,0.0556,0.058,0.0622,0.0676,0.0706,0.0687,0.0708,0.0699,0.0599,0.0451,0.0273,0.0064,-0.0051,-0.0215,-0.0276,-0.0198,-0.0234,-0.0318,-0.0313,-0.0382,-0.0383,-0.0384,-0.0384,-0.0385,0,0.0448,0.0483,0.0561,0.0604,0.0628,0.0691,0.0738,0.0753,0.0784,0.0765,0.0776,0.0652,0.056,0.0274,0.007,-0.0203,-0.0244,-0.033,-0.032,-0.03,-0.0333,-0.0326,-0.032,-0.0386,-0.0387,-0.0387,-0.0387,0,0.0487,0.0512,0.0563,0.0656,0.0718,0.0798,0.0858,0.0893,0.0904,0.0893,0.0843,0.0693,0.0522,0.0287,0.0069,-0.0127,-0.0272,-0.0339,-0.0339,-0.0331,-0.0306,-0.0336,-0.0329,-0.039,-0.0389,-0.0389,-0.0389,0,0.0511,0.0553,0.0619,0.0701,0.0788,0.087,0.0904,0.0937,0.0968,0.0939,0.0919,0.073,0.0616,0.0325,0.0126,-0.007,-0.0121,-0.018,-0.0189,-0.0189,-0.0106,-0.0045,-0.0075,0,0,0,0,0,0.053,0.0579,0.0658,0.075,0.0836,0.0894,0.0972,0.0993,0.1008,0.0987,0.0956,0.0796,0.0501,0.0373,0.0178,0.0097,-0.0164,-0.014,-0.0239,-0.0406,-0.0402,-0.034,0,0,0,0,0,0,0.0541,0.0615,0.066,0.0775,0.0845,0.095,0.1006,0.1019,0.1005,0.0985,0.0835,0.075,0.0465,0.0616,0.0176,0.0115,0.0026,-0.0281,-0.0285,-0.0408,-0.0405,-0.0402,-0.0336,0,0,0,0,0]}]]